Boulder Muni, Boulder, CO, CO

9:15 PM MDT on October 23, 2019 (GMT -0600)
Boulder Muni, Boulder, CO

Weather History for KBDU - August, 2019

Change the Weather History Date:

Wednesday, August 14, 2019

  Actual Average Record
Temperature  
Mean Temperature 73 °F -  
Max Temperature 90 °F - 95 °F (2015)
Min Temperature 55 °F - 54 °F (2016)
Degree Days  
Heating Degree Days 0    
Month to date heating degree days 0  
Cooling Degree Days 8    
Month to date cooling degree days 139  
Growing Degree Days 22 (Base 50)    
Moisture  
Dew Point 49 °F    
Average Humidity 55    
Maximum Humidity 93    
Minimum Humidity 16    
Precipitation  
Precipitation 0.00 in - 0.52 in (2018)
Snow  
Snow 0.00 in - - ()
Snow Depth 0.00 in    
Sea Level Pressure  
Sea Level Pressure 30.22 in    
Wind  
Wind Speed 3 mph (North)    
Max Wind Speed 8 mph    
Max Gust Speed -    
Visibility 10 miles    
Events      
T = Trace of Precipitation, MM = Missing Value Source: NWS Daily Summary

Daily Weather History Graph

Daily Weather History Graph

Search for Another Location

Airport or City:

Astronomy

Aug. 14, 2019 Rise Set
Actual Time 6:11 AM MDT 7:59 PM MDT
Civil Twilight 5:42 AM MDT 8:28 PM MDT
Nautical Twilight 5:06 AM MDT 9:03 PM MDT
Astronomical Twilight 4:28 AM MDT 9:41 PM MDT
Moon 7:54 PM MDT (8/14) 5:11 AM MDT (8/14)
Length of Visible Light 14h 46m
Length of Day
13h 47m
Waxing Gibbous, 99% of the Moon is Illuminated
Aug 14
Waxing Gibbous
Aug 15
Full
Aug 23
Last Quarter
Aug 30
New
Sep 5
First Quarter

Hourly Weather History & Observations

Time (MDT) Temp. Heat Index Dew Point Humidity Pressure Visibility Wind Dir Wind Speed Gust Speed Precip Events Conditions
12:12 AM 66.2 °F - 53.6 °F 64% 30.32 in 10.0 mi Calm Calm - N/A   Clear
12:30 AM 64.4 °F - 53.6 °F 68% 30.33 in 10.0 mi North 4.6 mph - N/A   Clear
12:54 AM 64.4 °F - 55.4 °F 73% 30.32 in 10.0 mi North 3.5 mph - N/A   Clear
1:12 AM 62.6 °F - 57.2 °F 82% 30.32 in 10.0 mi NW 5.8 mph - N/A   Clear
1:30 AM 62.6 °F - 57.2 °F 82% 30.31 in 10.0 mi WNW 5.8 mph - N/A   Clear
1:54 AM 62.6 °F - 55.4 °F 77% 30.30 in 10.0 mi NNW 3.5 mph - N/A   Clear
2:12 AM 62.6 °F - 55.4 °F 77% 30.29 in 10.0 mi Calm Calm - N/A   Clear
2:30 AM 62.6 °F - 59.0 °F 88% 30.29 in 10.0 mi ESE 3.5 mph - N/A   Clear
2:54 AM 62.6 °F - 57.2 °F 82% 30.28 in 10.0 mi Calm Calm - N/A   Clear
3:12 AM 60.8 °F - 59.0 °F 94% 30.28 in 10.0 mi WSW 3.5 mph - N/A   Clear
3:30 AM 62.6 °F - 59.0 °F 88% 30.27 in 10.0 mi WSW 3.5 mph - N/A   Clear
3:54 AM 62.6 °F - 57.2 °F 82% 30.25 in 10.0 mi SW 3.5 mph - N/A   Clear
4:12 AM 62.6 °F - 57.2 °F 82% 30.25 in 10.0 mi Calm Calm - N/A   Clear
4:48 AM 60.8 °F - 55.4 °F 82% 30.24 in 10.0 mi SSW 4.6 mph - N/A   Clear
5:12 AM 60.8 °F - 55.4 °F 82% 30.25 in 10.0 mi NNW 3.5 mph - N/A   Clear
5:30 AM 55.4 °F - 55.4 °F 100% 30.26 in 10.0 mi NNE 4.6 mph - N/A   Clear
5:48 AM 57.2 °F - 55.4 °F 94% 30.27 in 10.0 mi Calm Calm - N/A   Clear
6:13 AM 57.2 °F - 55.4 °F 94% 30.27 in 10.0 mi WNW 3.5 mph - N/A   Clear
6:31 AM 57.2 °F - 55.4 °F 94% 30.27 in 10.0 mi WNW 3.5 mph - N/A   Clear
6:49 AM 59.0 °F - 55.4 °F 88% 30.27 in 10.0 mi NW 3.5 mph - N/A   Clear
7:12 AM 59.0 °F - 55.4 °F 88% 30.27 in 10.0 mi Calm Calm - N/A   Clear
7:30 AM 60.8 °F - 57.2 °F 88% 30.27 in 10.0 mi Calm Calm - N/A   Clear
7:48 AM 62.6 °F - 57.2 °F 82% 30.28 in 10.0 mi North 4.6 mph - N/A   Clear
8:12 AM 62.6 °F - 55.4 °F 77% 30.27 in 10.0 mi Calm Calm - N/A   Clear
8:30 AM 62.6 °F - 55.4 °F 77% 30.27 in 10.0 mi Calm Calm - N/A   Clear
8:48 AM 64.4 °F - 55.4 °F 73% 30.26 in 10.0 mi Calm Calm - N/A   Clear
9:12 AM 66.2 °F - 55.4 °F 68% 30.26 in 10.0 mi Calm Calm - N/A   Clear
9:30 AM 68.0 °F - 55.4 °F 64% 30.26 in 10.0 mi Calm Calm - N/A   Clear
9:48 AM 69.8 °F - 55.4 °F 60% 30.26 in 10.0 mi Calm Calm - N/A   Clear
10:12 AM 71.6 °F - 53.6 °F 53% 30.25 in 10.0 mi Calm Calm - N/A   Clear
10:30 AM 71.6 °F - 53.6 °F 53% 30.25 in 10.0 mi Calm Calm - N/A   Clear
10:48 AM 73.4 °F - 53.6 °F 50% 30.24 in 10.0 mi Calm Calm - N/A   Clear
11:12 AM 75.2 °F - 53.6 °F 47% 30.24 in 10.0 mi Calm Calm - N/A   Clear
11:30 AM 77.0 °F - 53.6 °F 44% 30.22 in 10.0 mi Calm Calm - N/A   Clear
11:48 AM 78.8 °F - 53.6 °F 42% 30.22 in 10.0 mi Calm Calm - N/A   Clear
12:12 PM 78.8 °F - 51.8 °F 39% 30.21 in 10.0 mi SE 3.5 mph - N/A   Clear
12:30 PM 80.6 °F - 51.8 °F 37% 30.20 in 10.0 mi Calm Calm - N/A   Clear
12:48 PM 80.6 °F - 51.8 °F 37% 30.19 in 10.0 mi East 4.6 mph - N/A   Clear
1:12 PM 80.6 °F 80.3 °F 53.6 °F 39% 30.18 in 10.0 mi NE 5.8 mph - N/A   Clear
1:30 PM 82.4 °F - 50.0 °F 32% 30.18 in 10.0 mi North 6.9 mph - N/A   Clear
1:48 PM 86.0 °F - 50.0 °F 29% 30.18 in 10.0 mi ENE 8.1 mph - N/A   Clear
2:12 PM 86.0 °F - 50.0 °F 29% 30.18 in 10.0 mi North 8.1 mph - N/A   Clear
2:30 PM 87.8 °F - 35.6 °F 16% 30.18 in 10.0 mi East 4.6 mph - N/A   Clear
2:48 PM 84.2 °F - 37.4 °F 19% 30.17 in 10.0 mi NE 8.1 mph - N/A   Clear
3:12 PM 86.0 °F - 41.0 °F 20% 30.17 in 7.0 mi East 3.5 mph - N/A   Clear
3:30 PM 86.0 °F - 37.4 °F 18% 30.16 in 7.0 mi NE 3.5 mph - N/A   Clear
3:54 PM 87.8 °F - 39.2 °F 18% 30.15 in 10.0 mi NE 5.8 mph - N/A   Clear
4:12 PM 86.0 °F - 39.2 °F 19% 30.15 in 10.0 mi ENE 3.5 mph - N/A   Clear
4:54 PM 89.6 °F - 37.4 °F 16% 30.14 in 10.0 mi ENE 3.5 mph - N/A   Clear
5:12 PM 87.8 °F - 35.6 °F 16% 30.14 in 10.0 mi ENE 4.6 mph - N/A   Clear
5:30 PM 87.8 °F - 39.2 °F 18% 30.14 in 10.0 mi NNE 10.4 mph - N/A   Clear
5:54 PM 86.0 °F - 41.0 °F 20% 30.14 in 10.0 mi NNE 6.9 mph - N/A   Clear
6:14 PM 84.2 °F - 37.4 °F 19% 30.14 in 10.0 mi NNE 4.6 mph - N/A   Clear
6:32 PM 86.0 °F - 35.6 °F 17% 30.14 in 10.0 mi ENE 4.6 mph - N/A   Clear
6:50 PM 86.0 °F - 37.4 °F 18% 30.14 in 10.0 mi ESE 3.5 mph - N/A   Clear
7:12 PM 82.4 °F - 39.2 °F 21% 30.14 in 10.0 mi Calm Calm - N/A   Clear
7:30 PM 82.4 °F - 41.0 °F 23% 30.15 in 10.0 mi SSW 3.5 mph - N/A   Clear
7:54 PM 80.6 °F - 44.6 °F 28% 30.15 in 10.0 mi Calm Calm - N/A   Clear
8:12 PM 77.0 °F - 44.6 °F 32% 30.15 in 10.0 mi WSW 3.5 mph - N/A   Clear
8:30 PM 75.2 °F - 44.6 °F 34% 30.16 in 10.0 mi West 3.5 mph - N/A   Clear
8:48 PM 71.6 °F - 44.6 °F 38% 30.17 in 10.0 mi North 4.6 mph - N/A   Clear
9:12 PM 71.6 °F - 42.8 °F 35% 30.18 in 10.0 mi WNW 3.5 mph - N/A   Clear
9:30 PM 71.6 °F - 44.6 °F 38% 30.19 in 10.0 mi SW 3.5 mph - N/A   Clear
9:48 PM 71.6 °F - 41.0 °F 33% 30.20 in 10.0 mi West 3.5 mph - N/A   Clear
10:12 PM 71.6 °F - 44.6 °F 38% 30.20 in 10.0 mi West 3.5 mph - N/A   Clear
10:30 PM 69.8 °F - 41.0 °F 35% 30.20 in 10.0 mi NW 3.5 mph - N/A   Clear
10:48 PM 68.0 °F - 44.6 °F 43% 30.20 in 10.0 mi NNW 5.8 mph - N/A   Clear
11:12 PM 68.0 °F - 48.2 °F 49% 30.20 in 10.0 mi NW 8.1 mph - N/A   Clear
11:30 PM 68.0 °F - 50.0 °F 52% 30.18 in 10.0 mi WNW 8.1 mph - N/A   Clear
11:53 PM 68.0 °F - 44.6 °F 43% 30.18 in 10.0 mi Calm Calm - N/A   Clear